Location: Glencliff
(36.1226°N, 86.7183°W)
Time: 08:04:10
(UTC+00:00)

Okean 3 - Pass Details

Date: 25 August 2019
Orbit: 576 x 602 km, 82.5° (Epoch: 15 September)

Event Time Altitude Azimuth Distance (km) Brightness Sun altitude
Rises 01:46:28 0° 352° (N) 2,799 7.4 -16.1°
Reaches altitude 10° 01:48:39 10° 352° (N) 1,899 6.5 -16.5°
Maximum altitude 01:52:51 84° 265° (W) 590 3.4 -17.2°
Enters shadow 01:55:59 17° 177° (S) 1,477 5.2 -17.8°
